Total_Precipitation_Accumulation
1.90 2.05 2.18 2.17 2.24 2.30 2.44 2.55 2.61 2.43 2.18 2.03 2.00 1.93 1.93 2.00 2.20 1.85 1.79 1.99 1.83 1.69 1.62 1.58 1.55 1.56 1.59 1.63 1.69 1.80 1.90 1.98 2.09 2.19 2.28 2.43 2.56 2.67
1.66 1.76 1.87 1.94 2.05 2.14 2.27 2.37 2.44 2.40 2.26 2.04 1.96 1.91 1.88 1.78 1.96 1.67 1.67 1.86 1.72 1.60 1.50 1.44 1.41 1.44 1.45 1.50 1.55 1.57 1.58 1.58 1.62 1.68 1.76 1.85 2.00 2.22
1.72 1.76 1.79 1.83 1.92 1.93 1.95 2.01 2.15 2.29 2.38 2.27 2.07 1.99 1.97 1.89 1.78 1.59 1.48 1.47 1.48 1.54 1.48 1.43 1.36 1.33 1.37 1.36 1.33 1.31 1.30 1.31 1.35 1.38 1.43 1.53 1.60 1.69
1.63 1.70 1.68 1.63 1.70 1.79 1.86 1.86 1.90 2.02 2.14 2.19 2.05 1.89 1.87 1.85 1.79 1.73 1.46 1.32 1.33 1.36 1.28 1.21 1.19 1.16 1.12 1.14 1.15 1.12 1.09 1.12 1.16 1.20 1.23 1.28 1.36 1.45
1.42 1.44 1.44 1.46 1.43 1.47 1.55 1.63 1.63 1.64 1.80 1.86 1.84 1.78 1.73 1.67 1.73 1.70 1.55 1.57 1.30 1.22 1.12 1.03 1.00 0.98 0.93 0.91 0.95 1.02 1.01 0.95 0.94 0.98 1.03 1.10 1.16 1.22
1.13 1.15 1.20 1.28 1.31 1.34 1.33 1.39 1.44 1.56 1.63 1.70 1.66 1.63 1.63 1.54 1.57 1.62 1.57 1.47 1.32 1.09 1.08 0.95 0.87 0.81 0.80 0.81 0.80 0.83 0.88 0.93 1.00 1.00 0.93 0.87 0.90 0.94
0.90 0.88 0.89 1.04 1.14 1.13 1.04 1.16 1.31 1.47 1.55 1.58 1.52 1.42 1.38 1.45 1.43 1.40 1.42 1.42 1.34 1.20 1.23 1.05 0.95 0.89 0.90 0.87 0.81 0.77 0.80 0.81 0.83 0.86 0.85 0.80 0.80 0.79
0.90 0.90 0.83 0.87 0.90 0.87 0.85 0.99 1.19 1.25 1.35 1.48 1.48 1.44 1.39 1.41 1.41 1.40 1.47 1.53 1.54 1.34 1.32 1.21 1.08 1.08 1.02 0.95 0.89 0.79 0.76 0.82 0.79 0.76 0.76 0.75 0.76 0.77
0.89 0.88 0.77 0.72 0.81 0.81 0.82 0.85 0.93 0.95 1.08 1.33 1.48 1.42 1.41 1.49 1.57 1.53 1.61 1.64 1.56 1.46 1.53 1.48 1.24 1.12 0.90 0.82 0.87 0.77 0.74 0.78 0.83 0.79 0.77 0.77 0.77 0.78
0.85 0.85 0.86 0.79 0.75 0.77 0.77 0.82 0.90 0.95 0.98 1.04 1.29 1.33 1.32 1.43 1.53 1.60 1.69 1.64 1.55 1.50 1.58 1.60 1.31 1.22 0.98 0.97 0.91 0.78 0.74 0.73 0.77 0.78 0.78 0.77 0.78 0.82
0.76 0.70 0.75 0.77 0.75 0.72 0.77 0.92 0.99 1.03 0.89 0.91 1.02 1.13 1.17 1.26 1.33 1.43 1.66 1.82 1.70 1.48 1.46 1.56 1.36 1.27 1.15 1.08 0.97 0.86 0.77 0.74 0.69 0.71 0.73 0.77 0.81 0.89
0.75 0.71 0.66 0.65 0.65 0.67 0.77 0.91 0.99 1.00 0.92 0.92 1.10 1.21 1.20 1.28 1.32 1.44 1.69 1.76 1.65 1.59 1.41 1.48 1.42 1.41 1.39 1.14 1.03 0.96 0.89 0.82 0.72 0.70 0.72 0.75 0.84 0.87
0.70 0.75 0.69 0.59 0.56 0.60 0.72 0.79 0.85 0.85 0.96 1.13 1.22 1.26 1.29 1.35 1.35 1.38 1.58 1.67 1.69 1.71 1.45 1.48 1.49 1.51 1.58 1.32 1.09 1.03 1.02 1.00 0.95 0.93 0.92 0.87 0.87 0.85
0.73 0.74 0.68 0.59 0.55 0.58 0.65 0.71 0.74 0.85 1.04 1.24 1.31 1.29 1.23 1.22 1.26 1.27 1.42 1.55 1.58 1.53 1.43 1.49 1.62 1.63 1.55 1.35 1.17 1.04 1.04 1.13 1.22 1.29 1.25 1.22 1.08 1.04
0.64 0.61 0.57 0.57 0.58 0.69 0.73 0.74 0.84 1.07 1.20 1.26 1.33 1.33 1.22 1.15 1.15 1.12 1.22 1.40 1.42 1.26 1.12 1.20 1.44 1.48 1.52 1.43 1.29 1.21 1.20 1.19 1.31 1.48 1.52 1.43 1.30 1.18
0.58 0.58 0.63 0.67 0.71 0.81 0.92 1.02 1.06 1.12 1.13 1.20 1.25 1.20 1.08 1.04 1.11 1.12 1.20 1.30 1.36 1.29 1.09 1.04 1.18 1.37 1.50 1.42 1.36 1.33 1.31 1.39 1.39 1.50 1.65 1.68 1.52 1.27
0.49 0.65 0.86 0.91 0.99 1.06 1.10 1.15 1.19 1.13 1.07 1.08 1.12 1.12 1.07 1.05 1.06 1.03 1.11 1.20 1.31 1.27 1.16 1.08 1.11 1.19 1.24 1.29 1.33 1.28 1.29 1.37 1.47 1.56 1.71 1.85 1.78 1.48
0.51 0.75 0.86 0.92 1.01 1.05 1.05 1.08 1.13 1.15 1.09 1.05 1.05 1.04 1.03 1.01 1.04 0.99 1.02 1.15 1.25 1.16 1.10 1.05 1.02 1.09 1.12 1.10 1.11 1.15 1.22 1.37 1.50 1.57 1.57 1.70 1.87 1.69
0.67 0.84 0.86 0.91 0.98 0.95 0.95 0.98 1.00 1.01 0.96 0.95 0.93 0.90 0.89 0.89 0.96 0.97 0.94 0.95 0.96 0.92 0.89 0.90 0.94 1.06 1.15 1.21 1.18 1.20 1.28 1.37 1.46 1.50 1.52 1.60 1.78 1.71
0.75 0.80 0.82 0.82 0.88 0.88 0.88 0.89 0.85 0.80 0.77 0.81 0.85 0.84 0.83 0.83 0.84 0.85 0.82 0.81 0.86 0.85 0.83 0.87 0.92 0.99 1.09 1.16 1.33 1.44 1.34 1.24 1.29 1.45 1.57 1.61 1.71 1.70
0.70 0.71 0.74 0.74 0.75 0.82 0.82 0.76 0.70 0.67 0.67 0.68 0.70 0.74 0.76 0.73 0.74 0.71 0.68 0.64 0.72 0.78 0.80 0.82 0.84 0.86 0.93 1.03 1.18 1.35 1.37 1.39 1.36 1.42 1.50 1.55 1.47 1.38
0.60 0.61 0.59 0.58 0.60 0.65 0.64 0.60 0.58 0.59 0.58 0.59 0.61 0.60 0.60 0.62 0.64 0.61 0.59 0.61 0.67 0.68 0.71 0.73 0.75 0.81 0.91 1.03 1.15 1.29 1.35 1.22 1.18 1.25 1.30 1.23 1.14 1.20
0.56 0.54 0.50 0.48 0.49 0.52 0.53 0.53 0.52 0.53 0.54 0.57 0.56 0.52 0.51 0.52 0.51 0.51 0.52 0.53 0.54 0.56 0.61 0.66 0.70 0.77 0.82 0.83 0.89 0.96 0.97 0.95 0.90 0.90 1.01 1.11 1.10 1.14